• Join FlightAware (Why Join?)
  • Login
  • US Flag 
09:05AM EST


 

Airport Tracker/Info


-or-


 

Live Flight TrackerFlight Track Log ✈ BJS621 ✈ 02-May-2013 ✈ KSUS - KSDF

Flight Track Log - Related Links

Times and Time Zones

All times are in EDT time to prevent confusion due to time zone crossing. See the BJS621 flight status page for this flight to view local times or setup timezone preferences in your user account.

Time Position Orientation Groundspeed Altitude Reporting Facility
EDT Latitude Longitude Course Direction KTS MPH feet Rate Location/Type
01:32PM 38.6558 -90.6692 255° West 151 174 1,500  Level Kansas City Center
01:33PM 38.6392 -90.7492 255° West 190 219 4,100 2,177 Climbing Kansas City Center
01:34PM 38.5833 -90.7367 170° South 256 295 6,000 2,371 Climbing Kansas City Center
01:35PM 38.5764 -90.6381 95° East 278 320 9,000 2,323 Climbing Kansas City Center
01:36PM 38.5650 -90.5417 99° East 279 321 10,800 2,758 Climbing Kansas City Center
01:37PM 38.5517 -90.4086 97° East 327 376 14,700 3,871 Climbing Kansas City Center
01:38PM 38.5397 -90.2861 97° East 351 404 18,800 3,435 Climbing Kansas City Center
01:39PM 38.5281 -90.1625 97° East 355 409 21,800 2,613 Climbing Kansas City Center
01:40PM 38.5128 -90.0247 98° East 386 444 24,200 2,710 Climbing Kansas City Center
01:42PM 38.4983 -89.8847 97° East 398 458 27,400 2,758 Climbing Kansas City Center
01:43PM 38.4794 -89.7150 98° East 403 464 29,900 1,742 Climbing Kansas City Center
01:44PM 38.4639 -89.5617 97° East 423 487 31,000 532 Climbing Kansas City Center
01:45PM 38.4447 -89.3878 98° East 456 525 31,000  Level Kansas City Center
01:46PM 38.4264 -89.2258 98° East 462 532 31,000  Level Kansas City Center
01:47PM 38.4122 -89.0508 96° East 462 532 31,000  Level Kansas City Center
01:48PM 38.4075 -88.8861 92° East 464 534 31,000  Level Kansas City Center
01:49PM 38.4006 -88.7228 93° East 464 534 31,000  Level Kansas City Center
01:50PM 38.3919 -88.5631 94° East 461 531 31,000 -435 Level Kansas City Center
01:51PM 38.3844 -88.3969 93° East 465 535 30,100 -968 Descending Kansas City Center
01:52PM 38.3778 -88.2289 93° East 471 542 29,000 -919 Descending Kansas City Center
01:53PM 38.3686 -88.0611 94° East 472 543 28,200 -952 Descending Kansas City Center
01:54PM 38.3594 -87.8589 93° East 475 547 27,000 -1,087 Descending Indianapolis Center
01:55PM 38.3506 -87.6894 94° East 477 549 25,900 -1,008 Descending Indianapolis Center
01:56PM 38.3419 -87.5236 94° East 471 542 24,900 -823 Descending Indianapolis Center
01:57PM 38.3331 -87.3622 94° East 458 527 24,200 -629 Descending Indianapolis Center
01:58PM 38.3183 -87.2022 97° East 454 522 23,600 -1,355 Descending Indianapolis Center
01:59PM 38.2947 -87.0197 99° East 453 521 21,400 -2,710 Descending Indianapolis Center
02:00PM 38.2772 -86.8808 99° East 433 498 18,000 -3,242 Descending Indianapolis Center
02:01PM 38.2606 -86.7481 99° East 386 444 14,700 -3,000 Descending Indianapolis Center
02:02PM 38.2428 -86.6158 100° East 380 437 11,800 -2,081 Descending Indianapolis Center
02:03PM 38.2231 -86.4628 99° East 366 421 10,400 -1,161 Descending Indianapolis Center
02:04PM 38.2092 -86.3567 99° East 314 361 9,400 -968 Descending Indianapolis Center
02:05PM 38.1956 -86.2575 100° East 290 334 8,400 -1,016 Descending Indianapolis Center
02:06PM 38.1839 -86.1561 98° East 288 331 7,300 -1,355 Descending Indianapolis Center
02:07PM 38.2228 -86.0697 60° Northeast 294 338 5,600 -1,548 Descending Indianapolis Center
02:08PM 38.2703 -85.9925 52° Northeast 283 326 4,100 -1,248 Descending Indianapolis Center
02:09PM 38.3103 -85.8881 64° Northeast 277 319 3,000 -677 Descending Indianapolis Center
02:10PM 38.3131 -85.8022 88° East 258 297 2,700 -195 Descending Indianapolis Center
02:12PM 38.2633 -85.7450 138° Southeast 255 293 2,600 -97 Descending Indianapolis Center
02:14PM 38.1741 -85.7365 122° Southeast  Level Estimated
02:21PM 38.1741 -85.7365 122° Southeast  Level Estimated